Regional Weather Roundup
Issued by NWS New Orleans/Baton Rouge, LA

Home | Current Version | Previous Version | Text Only | Print | Product List | Glossary On
Versions: 1 2 3 4 5 6 7 8 9 10 11 12 13 14 15 16 17 18 19 20 21 22 23 24 25 26 27 28 29 30 31 32 33 34 35 36 37 38 39 40 41 42 43 44 45 46 47 48 49 50
173
ASUS44 KLIX 300305
RWRLIX
NEW ORLEANS REGIONAL WEATHER ROUNDUP
NATIONAL WEATHER SERVICE NEW ORLEANS LA
1000 PM CDT MON SEP 29 2014

NOTE: "FAIR" INDICATES FEW OR NO CLOUDS BELOW 12,000 FEET WITH NO
      SIGNIFICANT WEATHER AND/OR OBSTRUCTIONS TO VISIBILITY.
      SKY/WX - SKY CONDITION AND SIGNIFICANT WEATHER.
      TMP - AIR TEMPERATURE.     DP    - DEWPOINT TEMPERATURE.
      RH  - RELATIVE HUMIDITY.   PRES  - PRESSURE.
      HI  - HEAT INDEX.          WCI   - WIND CHILL INDEX.

*  THESE STATIONS ARE NOT NWS OR FAA STATIONS AND ARE NOT UNDER
   NWS QUALITY CONTROL.

LAZ038-040-048-061>063-065>067-069-300400-
SOUTHEAST LOUISIANA

CITY           SKY/WX    TMP DP  RH WIND       PRES   REMARKS
N.O. AUDUBON     N/A     75  73  92 MISG        N/A
N.O. INTL ARPT PTCLDY    77  70  79 CALM      29.89R
N.O. LAKEFRONT CLEAR     79  74  84 N3        29.89S
N.O. DOWNTOWN*   N/A     79  70  73 N3        29.89S
SLIDELL        CLEAR     74  71  91 CALM      29.89R
BATON ROUGE    CLEAR     74  71  91 CALM      29.89S
BOOTHVILLE     CLEAR     78  74  87 N3        29.88S
BELLE CHASSE   PTCLDY    74  70  87 CALM      29.88S
BOGALUSA*        N/A     74  70  88 CALM      29.92R
GALLIANO*      NOT AVBL
NEW ROADS*       N/A     74  73  97 CALM      29.90S
GONZALES*        N/A     74  74 100 CALM      29.89S
HAMMOND*       CLEAR     73  70  88 CALM      29.91S
HOUMA*         PTCLDY   N/A N/A N/A CALM      29.89S
PORT FOURCHON* CLEAR     81  73  78 NE7       29.91S

$$

MSZ070-080>082-300400-
SOUTHERN MISSISSIPPI

CITY           SKY/WX    TMP DP  RH WIND       PRES   REMARKS
MCCOMB         CLEAR     76  69  79 CALM      29.92R
GULFPORT       CLOUDY    78  72  81 VRB5      29.88S
BILOXI         PTCLDY    76  74  91 NE3       29.89R
PASCAGOULA     MOCLDY    74  72  93 CALM      29.89S

$$

COASTAL OBSERVATIONS
LAKE AND NEARSHORE STATIONS

STATION/POSITION TIME  TEMP    WIND        PRES    WAVE
                       AIR SEA DIR/SP/G            HT/PER
                 (UTC) (F)     (DEG/KT/KT) (MB)    (FT/S)
PASCAGOULA       0200   79      30/  6/  8 1011.5
WAVELAND YACHT   0200   76        CALM     1011.5
GRAND ISLE       0200   79 81   60/  3/  4 1012.4
SOUTHWEST PASS   0200   79 86   40/  8/  9 1011.9
NEW CANAL        0200   79 78   10/  3/  3 1012.5
SHELL BEACH      0200   79 74  360/  5/  5 1011.8

OFFSHORE STATIONS

STATION/POSITION TIME  TEMP    WIND        PRES    WAVE
                       AIR SEA DIR/SP/G            HT/PER
                 (UTC) (F)     (DEG/KT/KT) (MB)    (FT/S)
64 S DAUPHIN ISL 0222   80 82   30/ 10/ 12 1011.7    2/ 5

$$




USA.gov is the U.S. government's official web portal to all federal, state and local government web resources and services.